Home   Weather   Częstochowa   Past weeks

Flag for Poland Past Weather in Częstochowa, Poland — Yesterday and Last 2 Weeks

Now
39 °F

Light rain. Fog.


Feels Like: 34 °F
Forecast: 37 / 46 °F
Wind: 8 mph from Northeast

Location: Katowice Airport

Current Time: Apr 26, 2017 at 6:22:23 am

Latest Report: Apr 26, 2017 at 6:00 am


Visibility: 3 mi

Pressure: 29.80 "Hg

Humidity: 93%

Dew Point: 37 °F

Location of CzęstochowaLocation

Past Weather in Częstochowa — Graph

°F

Częstochowa Temperature Yesterday

Maximum temperature yesterday: 59 °F (at 1:30 pm)
Minimum temperature yesterday: 39 °F (at 1:30 am)
Average temperature yesterday: 50 °F

High & Low Weather Summary for the Past Weeks

 TemperatureHumidityPressure
High59 °F (Apr 25, 1:30 pm)100% (Apr 17, 1:00 am)30.39 "Hg (Apr 17, 1:00 am)
Low25 °F (Apr 21, 2:00 am)38% (Apr 24, 5:00 pm)29.68 "Hg (Apr 13, 5:30 am)
Average41 °F73%29.98 "Hg
* Reported Apr 11 5:00 am — Apr 26 5:00 am, Częstochowa, Weather by CustomWeather, © 2017

Note: Actual official high and low records may vary slightly from our data, if they occured in-between our weather recording intervals... More about our weather records

Advertising

Częstochowa Weather History for the Previous 24 Hours

Scroll right to see more
 ConditionsComfort  
Time TempWeatherWind HumidityBarometerVisibility
5:00 am
Wed, Apr 26
39 °FLight rain. Fog.9 mph93%29.77 "Hg1 mi
4:30 am41 °FLight rain. Fog.8 mph93%29.77 "Hg3 mi
4:00 am41 °FLight rain. Partly cloudy.5 mph93%29.77 "Hg4 mi
3:30 am41 °FLight rain. Mostly cloudy.7 mph93%29.77 "Hg4 mi
3:00 am41 °FLight rain. Mostly cloudy.7 mph93%29.77 "HgN/A
2:30 am41 °FLight rain. Partly cloudy.9 mph93%29.77 "HgN/A
2:00 am43 °FLight rain. Partly cloudy.12 mph87%29.77 "HgN/A
1:30 am45 °FLight rain. Partly cloudy.7 mph87%29.77 "HgN/A
1:00 am45 °FLight rain. Partly cloudy.10 mph87%29.77 "Hg6 mi
12:30 am46 °FLight rain. Overcast.9 mph87%29.74 "Hg4 mi
12:00 am46 °FLight rain. Mostly cloudy.12 mph87%29.74 "Hg4 mi
11:30 pm
Tue, Apr 25
50 °FOvercast.10 mph76%29.74 "HgN/A
11:00 pm50 °FOvercast.14 mph76%29.71 "HgN/A
10:30 pm52 °FPassing clouds.7 mph77%29.71 "HgN/A
10:00 pm54 °FPassing clouds.6 mph72%29.71 "HgN/A
9:30 pm54 °FPassing clouds.6 mph72%29.71 "HgN/A
9:00 pm54 °FPassing clouds.6 mph72%29.68 "HgN/A
8:30 pm54 °FClear.7 mph72%29.68 "Hg10 mi
8:00 pm55 °FPassing clouds.7 mph67%29.68 "HgN/A
7:30 pm55 °FSunny.10 mph67%29.68 "Hg10 mi
7:00 pm57 °FSunny.12 mph63%29.68 "Hg10 mi
6:30 pm57 °FSunny.14 mph63%29.68 "Hg10 mi
6:00 pm55 °FSunny.13 mph67%29.68 "Hg10 mi
5:30 pm55 °FSunny.16 mph67%29.68 "Hg10 mi
5:00 pm55 °FSunny.12 mph72%29.71 "Hg10 mi
4:30 pm54 °FPassing clouds.13 mph77%29.71 "HgN/A
4:00 pm54 °FSprinkles. Scattered clouds.16 mph77%29.71 "Hg5 mi
3:30 pm54 °FSprinkles. Scattered clouds.16 mph77%29.74 "Hg4 mi
3:00 pm52 °FRain showers. Partly sunny.17 mph82%29.71 "Hg4 mi
2:30 pm55 °FSprinkles. Scattered clouds.18 mph72%29.71 "Hg4 mi
2:00 pm57 °FSprinkles. Scattered clouds.17 mph59%29.71 "HgN/A
1:30 pm59 °FSunny.15 mph51%29.71 "Hg10 mi
1:00 pm57 °FSunny.17 mph51%29.71 "Hg10 mi
12:30 pm57 °FSunny.18 mph51%29.71 "Hg10 mi
12:00 pm57 °FSunny.21 mph48%29.71 "Hg10 mi
11:30 am57 °FSunny.20 mph48%29.68 "Hg10 mi
11:00 am57 °FSunny.17 mph48%29.68 "Hg10 mi
10:30 am57 °FSunny.16 mph48%29.68 "Hg10 mi
10:00 am55 °FSunny.14 mph55%29.71 "Hg10 mi
9:30 am54 °FSunny.13 mph58%29.71 "Hg10 mi
9:00 am50 °FSunny.8 mph67%29.71 "Hg10 mi
8:30 am48 °FSunny.9 mph66%29.71 "Hg10 mi
8:00 am46 °FSunny.9 mph66%29.71 "Hg10 mi
7:30 am45 °FSunny.8 mph66%29.74 "Hg10 mi
7:00 am41 °FSunny.8 mph76%29.74 "Hg10 mi
6:30 am41 °FSunny.7 mph76%29.74 "Hg10 mi
6:00 am41 °FSunny.8 mph70%29.74 "Hg10 mi
Weather by CustomWeather, © 2017

See weather overviewHow to use our weather pages